| time (UTC) | temp F | wind direction | speed knots | gust knots | rain 1hr in | rain 24hr in | rain mn in | humidity % | barometer mb |
| 20260505041711 | 50 | 180 | 1.7 | 2.6 | 0.00 | 0.00 | 0.00 | 94 | 1011.9 |
| 20260505040209 | 50 | 227 | 2.6 | 3.5 | 0.00 | 0.00 | 0.00 | 94 | 1011.7 |
| 20260505034704 | 50 | 12 | 2.6 | 7.0 | 0.00 | 0.00 | 0.00 | 93 | 1011.6 |
| 20260505033201 | 49 | 109 | 0.0 | 4.3 | 0.00 | 0.00 | 0.00 | 93 | 1011.6 |
| 20260505031658 | 50 | 99 | 0.0 | 4.3 | 0.00 | 0.00 | 0.00 | 92 | 1011.7 |
| 20260505030158 | 50 | 184 | 1.7 | 3.5 | 0.00 | 0.00 | 0.00 | 91 | 1012.0 |
| 20260505024656 | 50 | 170 | 2.6 | 2.6 | 0.00 | 0.00 | 0.00 | 91 | 1012.1 |
| 20260505023154 | 50 | 239 | 1.7 | 2.6 | 0.00 | 0.00 | 0.00 | 90 | 1011.7 |
| 20260505021650 | 50 | 270 | 0.9 | 4.3 | 0.00 | 0.00 | 0.00 | 89 | 1012.2 |
| 20260505020150 | 51 | 197 | 3.5 | 4.3 | 0.00 | 0.00 | 0.00 | 87 | 1012.2 |
| 20260505014647 | 51 | 201 | 5.2 | 5.2 | 0.00 | 0.00 | 0.00 | 85 | 1012.1 |
| 20260505013144 | 52 | 247 | 4.3 | 10.4 | 0.00 | 0.00 | 0.00 | 84 | 1011.8 |
| 20260505011641 | 52 | 282 | 5.2 | 8.7 | 0.00 | 0.00 | 0.00 | 83 | 1011.5 |
| 20260505010136 | 52 | 283 | 3.5 | 9.6 | 0.00 | 0.00 | 0.00 | 83 | 1011.2 |
| 20260505004632 | 53 | 209 | 6.1 | 8.7 | 0.00 | 0.00 | 0.00 | 82 | 1010.9 |
| 20260505003129 | 54 | 188 | 3.5 | 14.8 | 0.00 | 0.00 | 0.00 | 78 | 1010.7 |
| 20260505001626 | 54 | 220 | 5.2 | 10.4 | 0.00 | 0.00 | 0.00 | 77 | 1010.5 |
| 20260505000124 | 55 | 192 | 1.7 | 11.3 | 0.00 | 0.00 | 0.00 | 75 | 1010.4 |
| 20260504234620 | 55 | 189 | 4.3 | 7.8 | 0.00 | 0.00 | 0.00 | 73 | 1010.1 |
| 20260504233120 | 56 | 227 | 6.1 | 9.6 | 0.00 | 0.00 | 0.00 | 70 | 1010.0 |
| 20260504231618 | 57 | 200 | 6.1 | 13.0 | 0.00 | 0.00 | 0.00 | 68 | 1009.7 |
| 20260504230115 | 57 | 218 | 2.6 | 8.7 | 0.00 | 0.00 | 0.00 | 66 | 1009.8 |
| 20260504224612 | 58 | 246 | 11.3 | 16.5 | 0.00 | 0.00 | 0.00 | 63 | 1009.7 |
| 20260504223107 | 59 | 90 | 0.0 | 6.1 | 0.00 | 0.00 | 0.00 | 64 | 1009.6 |
| 20260504221605 | 61 | 134 | 0.0 | 7.8 | 0.00 | 0.00 | 0.00 | 58 | 1009.3 |
| 20260504220101 | 62 | 177 | 4.3 | 7.8 | 0.00 | 0.00 | 0.00 | 56 | 1009.3 |
| 20260504214556 | 61 | 232 | 3.5 | 12.2 | 0.00 | 0.00 | 0.00 | 55 | 1009.3 |
| 20260504213052 | 62 | 252 | 4.3 | 15.6 | 0.00 | 0.00 | 0.00 | 56 | 1009.3 |
| 20260504211548 | 63 | 175 | 0.0 | 15.6 | 0.00 | 0.00 | 0.00 | 55 | 1009.1 |
| 20260504210044 | 63 | 232 | 5.2 | 13.0 | 0.00 | 0.00 | 0.00 | 54 | 1009.1 |
| 20260504204544 | 65 | 197 | 6.1 | 7.8 | 0.00 | 0.00 | 0.00 | 53 | 1009.3 |
| 20260504203043 | 65 | 81 | 1.7 | 8.7 | 0.00 | 0.00 | 0.00 | 52 | 1008.8 |
| 20260504201539 | 65 | 324 | 1.7 | 10.4 | 0.00 | 0.00 | 0.00 | 52 | 1008.9 |
| 20260504200036 | 64 | 155 | 2.6 | 14.8 | 0.00 | 0.00 | 0.00 | 50 | 1008.9 |
| 20260504194531 | 67 | 212 | 7.0 | 11.3 | 0.00 | 0.00 | 0.00 | 44 | 1008.8 |
| 20260504193028 | 66 | 186 | 6.1 | 13.0 | 0.00 | 0.00 | 0.00 | 46 | 1008.9 |
| 20260504191527 | 65 | 213 | 7.0 | 13.0 | 0.00 | 0.00 | 0.00 | 45 | 1008.9 |
| 20260504190026 | 65 | 232 | 11.3 | 21.7 | 0.00 | 0.00 | 0.00 | 43 | 1009.0 |
| 20260504184521 | 66 | 241 | 10.4 | 13.9 | 0.00 | 0.00 | 0.00 | 41 | 1009.0 |
| 20260504183018 | 67 | 223 | 10.4 | 16.5 | 0.00 | 0.00 | 0.00 | 43 | 1009.0 |
| 20260504181515 | 66 | 200 | 3.5 | 13.0 | 0.00 | 0.00 | 0.00 | 44 | 1009.3 |
| 20260504180010 | 66 | 252 | 9.6 | 16.5 | 0.00 | 0.00 | 0.00 | 43 | 1009.4 |
| 20260504174508 | 67 | 252 | 6.1 | 12.2 | 0.00 | 0.00 | 0.00 | 39 | 1009.6 |
| 20260504173005 | 66 | 228 | 6.1 | 19.1 | 0.00 | 0.00 | 0.00 | 38 | 1009.4 |
| 20260504171500 | 66 | 289 | 6.1 | 13.9 | 0.00 | 0.00 | 0.00 | 38 | 1009.4 |
| 20260504081302 | 47 | 336 | 1.7 | 3.5 | 0.00 | 0.00 | 0.00 | 67 | 1011.1 |
| 20260504045721 | 45 | 201 | 1.7 | 2.6 | 0.00 | 0.00 | 0.00 | 65 | 1010.8 |